.
WxDataArchive / Data Records for 2010-11-03
2010-11-02 November 2010 2010-11-04

Data Records for Wednesday, 03 November 2010

Time	Temp	Chill	HIndex	Humid	Dewpt	 Wind 	HiWind	WindDir	Rain 	Barom 
-----	----	-----	------	-----	-----	------	------	-------	-----	----- 
00:00	29.5	29.5	29.5	85	25.6	0	0	---	0.00	30.311 
00:05	29.4	29.4	29.4	85	25.5	0	0	---	0.00	30.311 
00:10	29.3	29.3	29.3	86	25.6	0	0	---	0.00	30.311 
00:15	29.3	29.3	29.3	86	25.6	0	0	---	0.00	30.297 
00:20	29.1	29.1	29.1	86	25.4	0	0	---	0.00	30.297 
00:25	29.0	29.0	29.0	86	25.3	0	0	---	0.00	30.297 
00:30	28.8	28.8	28.8	87	25.4	0	0	---	0.00	30.293 
00:35	28.7	28.7	28.7	87	25.3	0	0	---	0.00	30.293 
00:40	28.7	28.7	28.7	87	25.3	0	0	---	0.00	30.293 
00:45	28.5	28.5	28.5	87	25.1	0	0	---	0.00	30.281 
00:50	28.5	28.5	28.5	87	25.1	0	0	---	0.00	30.281 
00:55	28.4	28.4	28.4	88	25.3	0	0	---	0.00	30.281 
01:00	28.4	28.4	28.4	88	25.3	0	0	---	0.00	30.280 
01:05	28.4	28.4	28.4	88	25.3	0	0	---	0.00	30.280 
01:10	28.2	28.2	28.2	88	25.1	0	0	---	0.00	30.280 
01:15	28.2	28.2	28.2	88	25.1	0	0	---	0.00	30.275 
01:20	28.1	28.1	28.1	88	25.0	0	0	---	0.00	30.275 
01:25	27.9	27.9	27.9	88	24.8	0	0	---	0.00	30.275 
01:30	27.8	27.8	27.8	88	24.7	0	0	---	0.00	30.266 
01:35	27.6	27.6	27.6	88	24.5	0	0	---	0.00	30.266 
01:40	27.6	27.6	27.6	88	24.5	0	0	---	0.00	30.266 
01:45	27.5	27.5	27.5	88	24.4	0	0	---	0.00	30.263 
01:50	27.5	27.5	27.5	88	24.4	0	0	---	0.00	30.263 
01:55	27.5	27.5	27.5	89	24.7	0	0	---	0.00	30.263 
02:00	27.3	27.3	27.3	89	24.5	0	0	---	0.00	30.250 
02:05	27.3	27.3	27.3	89	24.5	0	0	---	0.00	30.250 
02:10	27.2	27.2	27.2	89	24.4	0	0	---	0.00	30.250 
02:15	27.0	27.0	27.0	89	24.2	0	0	---	0.00	30.245 
02:20	26.9	26.9	26.9	89	24.1	0	0	---	0.00	30.245 
02:25	26.9	26.9	26.9	89	24.1	0	0	---	0.00	30.245 
02:30	26.7	26.7	26.7	89	23.9	0	0	---	0.00	30.245 
02:35	26.7	26.7	26.7	89	23.9	0	0	---	0.00	30.245 
02:40	26.7	26.7	26.7	89	23.9	0	0	---	0.00	30.245 
02:45	26.7	26.7	26.7	89	23.9	0	0	---	0.00	30.237 
02:50	26.6	26.6	26.6	89	23.8	0	0	---	0.00	30.237 
02:55	26.6	26.6	26.6	90	24.1	0	0	---	0.00	30.237 
03:00	26.4	26.4	26.4	90	23.9	0	0	---	0.00	30.233 
03:05	26.4	26.4	26.4	90	23.9	0	0	---	0.00	30.233 
03:10	26.3	26.3	26.3	90	23.8	0	0	---	0.00	30.233 
03:15	26.3	26.3	26.3	90	23.8	0	0	---	0.00	30.229 
03:20	26.1	26.1	26.1	90	23.6	0	0	---	0.00	30.229 
03:25	26.1	26.1	26.1	90	23.6	0	0	---	0.00	30.229 
03:30	26.0	26.0	26.0	90	23.5	0	0	---	0.00	30.222 
03:35	26.0	26.0	26.0	90	23.5	0	0	---	0.00	30.222 
03:40	25.8	25.8	25.8	90	23.3	0	0	---	0.00	30.222 
03:45	25.8	25.8	25.8	90	23.3	0	0	---	0.00	30.218 
03:50	25.8	25.8	25.8	90	23.3	0	0	---	0.00	30.218 
03:55	25.8	25.8	25.8	90	23.3	0	0	---	0.00	30.218 
04:00	25.8	25.8	25.8	90	23.3	0	0	---	0.00	30.211 
04:05	25.8	25.8	25.8	90	23.3	0	0	---	0.00	30.211 
04:10	25.8	25.8	25.8	90	23.3	0	0	---	0.00	30.211 
04:15	25.7	25.7	25.7	90	23.2	0	0	---	0.00	30.214 
04:20	25.7	25.7	25.7	90	23.2	0	0	---	0.00	30.214 
04:25	25.6	25.6	25.6	90	23.1	0	0	---	0.00	30.214 
04:30	25.4	25.4	25.4	90	22.9	0	0	---	0.00	30.206 
04:35	25.3	25.3	25.3	90	22.8	0	0	---	0.00	30.206 
04:40	25.3	25.3	25.3	90	22.8	0	0	---	0.00	30.206 
04:45	25.1	25.1	25.1	90	22.6	0	0	---	0.00	30.204 
04:50	25.1	25.1	25.1	90	22.6	0	0	---	0.00	30.204 
04:55	25.1	25.1	25.1	90	22.6	0	0	---	0.00	30.204 
05:00	25.1	25.1	25.1	91	22.9	0	0	---	0.00	30.200 
05:05	25.1	25.1	25.1	91	22.9	0	0	---	0.00	30.200 
05:10	25.1	25.1	25.1	91	22.9	0	0	---	0.00	30.200 
05:15	25.1	25.1	25.1	91	22.9	0	0	---	0.00	30.198 
05:20	25.0	25.0	25.0	91	22.8	0	0	---	0.00	30.198 
05:25	25.0	25.0	25.0	91	22.8	0	0	---	0.00	30.198 
05:30	25.0	25.0	25.0	91	22.8	0	0	---	0.00	30.196 
05:35	25.0	25.0	25.0	91	22.8	0	0	---	0.00	30.196 
05:40	25.0	25.0	25.0	91	22.8	0	0	---	0.00	30.196 
05:45	25.0	25.0	25.0	91	22.8	0	0	---	0.00	30.196 
05:50	24.8	24.8	24.8	91	22.6	0	0	---	0.00	30.196 
05:55	24.8	24.8	24.8	91	22.6	0	0	---	0.00	30.196 
06:00	24.8	24.8	24.8	91	22.6	0	0	---	0.00	30.195 
06:05	24.7	24.7	24.7	91	22.5	0	0	---	0.00	30.195 
06:10	24.7	24.7	24.7	91	22.5	0	0	---	0.00	30.195 
06:15	24.7	24.7	24.7	91	22.5	0	0	---	0.00	30.201 
06:20	24.7	24.7	24.7	91	22.5	0	0	---	0.00	30.201 
06:25	24.7	24.7	24.7	91	22.5	0	0	---	0.00	30.201 
06:30	24.7	24.7	24.7	91	22.5	0	0	---	0.00	30.203 
06:35	24.7	24.7	24.7	91	22.5	0	0	---	0.00	30.203 
06:40	24.7	24.7	24.7	91	22.5	0	0	---	0.00	30.203 
06:45	24.7	24.7	24.7	91	22.5	0	0	---	0.00	30.195 
06:50	24.5	24.5	24.5	91	22.3	0	0	---	0.00	30.195 
06:55	24.4	24.4	24.4	91	22.2	0	0	---	0.00	30.195 
07:00	24.2	24.2	24.2	91	22.0	0	0	---	0.00	30.195 
07:05	24.2	24.2	24.2	91	22.0	0	0	---	0.00	30.195 
07:10	24.2	24.2	24.2	91	22.0	0	0	---	0.00	30.195 
07:15	24.1	24.1	24.1	91	21.9	0	0	---	0.00	30.191 
07:20	24.1	24.1	24.1	91	21.9	0	0	---	0.00	30.191 
07:25	24.1	24.1	24.1	91	21.9	0	0	---	0.00	30.191 
07:30	23.9	23.9	23.9	91	21.7	0	0	---	0.00	30.189 
07:35	23.9	23.9	23.9	91	21.7	0	0	---	0.00	30.189 
07:40	23.9	23.9	23.9	91	21.7	0	0	---	0.00	30.189 
07:45	24.1	24.1	24.1	91	21.9	0	0	---	0.00	30.195 
07:50	23.9	23.9	23.9	91	21.7	0	0	---	0.00	30.195 
07:55	23.9	23.9	23.9	91	21.7	0	0	---	0.00	30.195 
08:00	23.9	23.9	23.9	91	21.7	0	0	---	0.00	30.188 
08:05	23.8	23.8	23.8	91	21.6	0	0	---	0.00	30.188 
08:10	23.6	23.6	23.6	91	21.4	0	0	---	0.00	30.188 
08:15	23.6	23.6	23.6	91	21.4	0	0	---	0.00	30.183 
08:20	23.6	23.6	23.6	91	21.4	0	0	---	0.00	30.183 
08:25	23.6	23.6	23.6	91	21.4	0	0	---	0.00	30.183 
08:30	23.5	23.5	23.5	91	21.3	0	0	---	0.00	30.180 
08:35	23.6	23.6	23.6	91	21.4	0	0	---	0.00	30.180 
08:40	23.6	23.6	23.6	91	21.4	0	0	---	0.00	30.180 
08:45	23.8	23.8	23.8	91	21.6	0	0	---	0.00	30.172 
08:50	23.9	23.9	23.9	91	21.7	0	0	---	0.00	30.172 
08:55	24.1	24.1	24.1	92	22.1	0	0	---	0.00	30.172 
09:00	24.4	24.4	24.4	92	22.4	0	0	---	0.00	30.172 
09:05	25.0	25.0	25.0	93	23.3	0	0	---	0.00	30.172 
09:10	25.7	25.7	25.7	92	23.7	0	0	---	0.00	30.172 
09:15	26.3	26.3	26.3	92	24.3	0	0	---	0.00	30.170 
09:20	26.9	26.9	26.9	92	24.9	0	0	---	0.00	30.170 
09:25	27.3	27.3	27.3	92	25.3	0	0	---	0.00	30.170 
09:30	27.9	27.9	27.9	93	26.1	0	0	---	0.00	30.167 
09:35	28.7	28.7	28.7	93	26.9	0	0	---	0.00	30.167 
09:40	29.5	29.5	29.5	93	27.7	0	0	---	0.00	30.167 
09:45	30.7	30.7	30.7	94	29.2	0	0	---	0.00	30.162 
09:50	32.2	32.2	32.2	94	30.7	0	0	---	0.00	30.162 
09:55	33.8	33.8	33.8	94	32.3	0	0	---	0.00	30.162 
10:00	34.7	34.7	34.7	92	32.6	0	0	---	0.00	30.142 
10:05	35.9	35.9	35.9	92	33.8	0	0	---	0.00	30.142 
10:10	36.6	36.6	36.6	89	33.7	0	1	90	0.00	30.142 
10:15	37.2	37.2	37.2	88	34.0	0	0	---	0.00	30.141 
10:20	37.9	37.9	37.9	87	34.4	0	0	---	0.00	30.141 
10:25	38.8	38.8	38.8	86	35.0	0	1	90	0.00	30.141 
10:30	39.8	39.8	39.8	83	35.1	0	0	---	0.00	30.134 
10:35	40.8	40.8	40.8	81	35.4	0	0	---	0.00	30.134 
10:40	41.5	41.5	41.5	78	35.2	0	1	90	0.00	30.134 
10:45	41.9	41.9	41.9	74	34.2	0	1	90	0.00	30.129 
10:50	42.8	42.8	42.8	73	34.8	0	1	90	0.00	30.129 
10:55	42.9	42.9	42.9	70	33.8	0	1	90	0.00	30.129 
11:00	42.9	42.9	42.9	71	34.2	0	1	90	0.00	30.123 
11:05	42.9	42.9	42.9	71	34.2	0	1	90	0.00	30.123 
11:10	42.9	42.9	42.9	69	33.4	0	2	90	0.00	30.123 
11:15	42.9	42.9	42.9	69	33.4	0	3	90	0.00	30.119 
11:20	42.9	42.9	42.9	69	33.4	0	2	90	0.00	30.119 
11:25	42.8	42.8	42.8	69	33.3	0	1	90	0.00	30.119 
11:30	42.8	42.8	42.8	69	33.3	0	2	90	0.00	30.109 
11:35	42.9	42.9	42.9	67	32.7	0	1	90	0.00	30.109 
11:40	42.9	42.9	42.9	68	33.1	0	2	90	0.00	30.109 
11:45	43.1	43.1	43.1	66	32.5	0	2	90	0.00	30.097 
11:50	43.6	43.6	43.6	65	32.6	0	2	90	0.00	30.097 
11:55	44.3	44.3	44.3	63	32.5	0	3	90	0.00	30.097 
12:00	44.6	44.6	44.6	63	32.8	0	2	90	0.00	30.093 
12:05	44.8	44.8	44.8	61	32.2	0	2	90	0.00	30.093 
12:10	44.8	44.8	44.8	60	31.8	0	1	90	0.00	30.093 
12:15	44.9	44.9	44.9	59	31.5	0	2	90	0.00	30.083 
12:20	45.2	45.2	45.2	59	31.7	1	2	90	0.00	30.083 
12:25	45.4	45.4	45.4	58	31.5	0	2	90	0.00	30.083 
12:30	45.8	45.8	45.8	57	31.4	0	2	90	0.00	30.076 
12:35	46.0	46.0	46.0	57	31.6	0	1	90	0.00	30.076 
12:40	46.2	46.2	46.2	56	31.4	0	2	90	0.00	30.076 
12:45	46.4	46.4	46.4	54	30.7	0	1	90	0.00	30.064 
12:50	46.5	46.5	46.5	53	30.3	0	2	90	0.00	30.064 
12:55	46.7	46.7	46.7	54	30.9	0	2	112	0.00	30.064 
13:00	47.1	47.1	47.1	53	30.9	0	4	112	0.00	30.061 
13:05	47.3	47.3	47.3	50	29.6	1	4	270	0.00	30.061 
13:10	47.3	47.3	47.3	50	29.6	1	3	270	0.00	30.061 
13:15	47.1	47.1	47.1	49	28.9	0	2	270	0.00	30.046 
13:20	47.3	47.3	47.3	49	29.1	1	2	270	0.00	30.046 
13:25	47.3	47.3	47.3	50	29.6	1	3	270	0.00	30.046 
13:30	47.7	47.7	47.7	50	30.0	0	2	270	0.00	30.036 
13:35	47.9	47.9	47.9	49	29.7	0	3	270	0.00	30.036 
13:40	47.7	47.7	47.7	48	29.0	1	3	270	0.00	30.036 
13:45	47.6	47.6	47.6	49	29.4	1	3	248	0.00	30.026 
13:50	47.6	47.6	47.6	49	29.4	1	4	248	0.00	30.026 
13:55	47.6	47.6	47.6	49	29.4	1	3	248	0.00	30.026 
14:00	47.4	47.4	47.4	49	29.2	0	2	248	0.00	30.017 
14:05	47.6	47.6	47.6	48	28.9	1	2	248	0.00	30.017 
14:10	47.6	47.6	47.6	49	29.4	1	3	248	0.00	30.017 
14:15	47.6	47.6	47.6	49	29.4	1	4	248	0.00	30.010 
14:20	47.7	47.7	47.7	49	29.5	1	4	248	0.00	30.010 
14:25	47.9	47.9	47.9	49	29.7	1	2	248	0.00	30.010 
14:30	47.9	47.9	47.9	48	29.2	1	5	248	0.00	30.000 
14:35	48.0	48.0	48.0	48	29.3	0	2	248	0.00	30.000 
14:40	48.3	48.3	48.3	47	29.0	1	3	248	0.00	30.000 
14:45	48.3	48.3	48.3	46	28.5	1	2	248	0.00	29.985 
14:50	48.3	48.3	48.3	47	29.0	1	2	248	0.00	29.985 
14:55	48.3	48.3	48.3	46	28.5	1	2	248	0.00	29.985 
15:00	48.3	48.3	48.3	47	29.0	0	2	248	0.00	29.978 
15:05	48.2	48.2	48.2	47	28.9	0	2	248	0.00	29.978 
15:10	48.0	48.0	48.0	45	27.7	0	1	248	0.00	29.978 
15:15	48.0	48.0	48.0	44	27.1	0	2	248	0.00	29.967 
15:20	47.9	47.9	47.9	45	27.6	0	1	248	0.00	29.967 
15:25	47.9	47.9	47.9	46	28.1	0	2	248	0.00	29.967 
15:30	47.7	47.7	47.7	46	27.9	0	2	248	0.00	29.965 
15:35	47.7	47.7	47.7	47	28.5	0	2	248	0.00	29.965 
15:40	47.6	47.6	47.6	49	29.4	0	1	248	0.00	29.965 
15:45	47.6	47.6	47.6	47	28.4	0	1	248	0.00	29.960 
15:50	47.4	47.4	47.4	47	28.2	0	2	248	0.00	29.960 
15:55	47.4	47.4	47.4	47	28.2	0	2	248	0.00	29.960 
16:00	47.3	47.3	47.3	48	28.6	0	1	248	0.00	29.961 
16:05	47.3	47.3	47.3	49	29.1	0	1	248	0.00	29.961 
16:10	47.1	47.1	47.1	48	28.4	0	1	248	0.00	29.961 
16:15	47.1	47.1	47.1	49	28.9	0	1	248	0.00	29.952 
16:20	47.1	47.1	47.1	52	30.4	0	1	248	0.00	29.952 
16:25	47.0	47.0	47.0	52	30.3	0	2	248	0.00	29.952 
16:30	46.8	46.8	46.8	54	31.0	0	1	248	0.00	29.943 
16:35	46.5	46.5	46.5	54	30.8	0	1	248	0.00	29.943 
16:40	46.4	46.4	46.4	56	31.6	0	2	248	0.00	29.943 
16:45	46.2	46.2	46.2	58	32.2	0	1	248	0.00	29.939 
16:50	46.1	46.1	46.1	58	32.2	0	1	248	0.00	29.939 
16:55	46.1	46.1	46.1	58	32.2	0	2	248	0.00	29.939 
17:00	46.0	46.0	46.0	58	32.1	0	1	248	0.00	29.927 
17:05	46.0	46.0	46.0	58	32.1	0	1	248	0.00	29.927 
17:10	45.8	45.8	45.8	59	32.3	0	1	248	0.00	29.927 
17:15	45.7	45.7	45.7	60	32.6	0	3	248	0.00	29.921 
17:20	45.7	45.7	45.7	59	32.2	0	1	248	0.00	29.921 
17:25	45.5	45.5	45.5	60	32.4	0	2	248	0.00	29.921 
17:30	45.5	45.5	45.5	60	32.4	0	2	248	0.00	29.924 
17:35	45.5	45.5	45.5	60	32.4	0	3	248	0.00	29.924 
17:40	45.5	45.5	45.5	59	32.0	0	1	248	0.00	29.924 
17:45	45.4	45.4	45.4	59	31.9	0	3	248	0.00	29.922 
17:50	45.4	45.4	45.4	59	31.9	0	2	248	0.00	29.922 
17:55	45.4	45.4	45.4	59	31.9	0	1	248	0.00	29.922 
18:00	45.4	45.4	45.4	60	32.3	0	0	---	0.00	29.913 
18:05	45.4	45.4	45.4	60	32.3	0	1	248	0.00	29.913 
18:10	45.2	45.2	45.2	60	32.1	0	1	248	0.00	29.913 
18:15	45.1	45.1	45.1	59	31.6	0	0	---	0.00	29.910 
18:20	45.1	45.1	45.1	60	32.1	0	0	---	0.00	29.910 
18:25	44.8	44.8	44.8	60	31.8	0	0	---	0.00	29.910 
18:30	44.6	44.6	44.6	60	31.6	0	0	---	0.00	29.907 
18:35	44.3	44.3	44.3	61	31.7	0	0	---	0.00	29.907 
18:40	44.2	44.2	44.2	62	32.0	0	0	---	0.00	29.907 
18:45	44.1	44.1	44.1	62	31.9	0	0	---	0.00	29.897 
18:50	43.8	43.8	43.8	66	33.2	0	0	---	0.00	29.897 
18:55	43.5	43.5	43.5	67	33.3	0	0	---	0.00	29.897 
19:00	43.1	43.1	43.1	68	33.3	0	0	---	0.00	29.894 
19:05	42.8	42.8	42.8	68	33.0	0	0	---	0.00	29.894 
19:10	42.5	42.5	42.5	68	32.7	0	0	---	0.00	29.894 
19:15	42.3	42.3	42.3	69	32.9	0	0	---	0.00	29.896 
19:20	42.2	42.2	42.2	69	32.8	0	0	---	0.00	29.896 
19:25	42.1	42.1	42.1	71	33.4	0	0	---	0.00	29.896 
19:30	41.9	41.9	41.9	73	33.9	0	0	---	0.00	29.897 
19:35	41.8	41.8	41.8	73	33.8	0	0	---	0.00	29.897 
19:40	41.5	41.5	41.5	72	33.2	0	0	---	0.00	29.897 
19:45	41.3	41.3	41.3	72	33.0	0	0	---	0.00	29.895 
19:50	41.3	41.3	41.3	73	33.3	0	0	---	0.00	29.895 
19:55	41.2	41.2	41.2	74	33.6	0	0	---	0.00	29.895 
20:00	41.1	41.1	41.1	74	33.5	0	0	---	0.00	29.897 
20:05	40.9	40.9	40.9	75	33.6	0	0	---	0.00	29.897 
20:10	40.9	40.9	40.9	77	34.3	0	0	---	0.00	29.897 
20:15	40.8	40.8	40.8	77	34.2	0	0	---	0.00	29.897 
20:20	40.6	40.6	40.6	77	34.0	0	0	---	0.00	29.897 
20:25	40.6	40.6	40.6	77	34.0	0	0	---	0.00	29.897 
20:30	40.6	40.6	40.6	77	34.0	0	0	---	0.00	29.894 
20:35	40.6	40.6	40.6	77	34.0	0	0	---	0.00	29.894 
20:40	40.6	40.6	40.6	77	34.0	0	0	---	0.00	29.894 
20:45	40.6	40.6	40.6	77	34.0	0	0	---	0.00	29.889 
20:50	40.8	40.8	40.8	77	34.2	0	0	---	0.00	29.889 
20:55	40.8	40.8	40.8	77	34.2	0	0	---	0.00	29.889 
21:00	40.8	40.8	40.8	77	34.2	0	0	---	0.00	29.887 
21:05	40.8	40.8	40.8	77	34.2	0	0	---	0.00	29.887 
21:10	40.9	40.9	40.9	77	34.3	0	0	---	0.00	29.887 
21:15	40.9	40.9	40.9	76	33.9	0	0	---	0.00	29.870 
21:20	40.9	40.9	40.9	75	33.6	0	0	---	0.00	29.870 
21:25	40.9	40.9	40.9	75	33.6	0	0	---	0.00	29.870 
21:30	40.9	40.9	40.9	74	33.3	0	0	---	0.00	29.865 
21:35	40.8	40.8	40.8	74	33.2	0	0	---	0.00	29.865 
21:40	40.8	40.8	40.8	74	33.2	0	0	---	0.00	29.865 
21:45	40.8	40.8	40.8	74	33.2	0	0	---	0.00	29.861 
21:50	40.8	40.8	40.8	73	32.8	0	0	---	0.00	29.861 
21:55	40.9	40.9	40.9	71	32.2	0	0	---	0.00	29.861 
22:00	40.9	40.9	40.9	70	31.9	0	0	---	0.00	29.859 
22:05	40.9	40.9	40.9	69	31.5	0	0	---	0.00	29.859 
22:10	40.6	40.6	40.6	69	31.2	0	0	---	0.00	29.859 
22:15	40.5	40.5	40.5	68	30.8	0	0	---	0.00	29.852 
22:20	40.5	40.5	40.5	69	31.1	0	0	---	0.00	29.852 
22:25	40.3	40.3	40.3	69	31.0	0	0	---	0.00	29.852 
22:30	40.3	40.3	40.3	69	31.0	0	1	248	0.00	29.849 
22:35	40.3	40.3	40.3	69	31.0	0	0	---	0.00	29.849 
22:40	40.5	40.5	40.5	69	31.1	0	0	---	0.00	29.849 
22:45	40.6	40.6	40.6	69	31.2	0	0	---	0.00	29.847 
22:50	40.6	40.6	40.6	69	31.2	0	0	---	0.00	29.847 
22:55	40.8	40.8	40.8	68	31.1	0	0	---	0.00	29.847 
23:00	41.1	41.1	41.1	67	31.0	0	1	248	0.00	29.847 
23:05	41.2	41.2	41.2	66	30.7	0	1	248	0.00	29.847 
23:10	41.3	41.3	41.3	65	30.4	0	1	248	0.00	29.847 
23:15	41.5	41.5	41.5	65	30.6	0	1	248	0.00	29.843 
23:20	41.5	41.5	41.5	65	30.6	0	1	248	0.00	29.843 
23:25	41.6	41.6	41.6	64	30.3	0	1	248	0.00	29.843 
23:30	41.6	41.6	41.6	64	30.3	0	1	248	0.00	29.837 
23:35	41.8	41.8	41.8	64	30.5	0	1	248	0.00	29.837 
23:40	41.8	41.8	41.8	64	30.5	0	1	248	0.00	29.837 
23:45	41.6	41.6	41.6	64	30.3	0	1	248	0.00	29.831 
23:50	41.6	41.6	41.6	64	30.3	0	1	248	0.00	29.831 
23:55	41.5	41.5	41.5	63	29.9	0	1	248	0.00	29.831 

CoCoRaHS
IN-AL-39
A2 Web Hosting
Creative Commons License
GoDaddy
search engine by freefind advanced

loaded 2018-11-13 23:45:06 • last modified 2010-11-18 10:43:29
Privacy PolicyDisclaimer
• wx.awcolley.com is powered by PmWiki v.2002016 •
• all content (unless otherwise noted) © 2018 A W Colley